Погода в Карачеве

Россия / Брянская область     53°07′17″N   34°58′58″E
темп.,
°C
ветер,
м/с
пор.,
м/с
влажн.,
%
обл.,
%
осадки,
мм/ч
давл.,
гПа
погр.,
м
4 марта, чт
чт400:00−2зюз5119250 0.0 1016293
03:00−2зюз6129042 0.0 1015341
06:00−2юз6149073 0.0 1012376
09:00−1зюз7158045 0.0 1009559
12:00+1зюз7128745 0.0 1007712
15:00+3зюз6118550 0.0 1005823
18:00+2з4108998 0.1 1003345
21:000зсз4109699 0.1 1003594
5 марта, пт
пт500:00−1зсз3893100 0.0 1004300
03:00−2зсз3695100 0.1 1006311
06:00−2ссв2389100 0.2 1007175
09:00−2ссз3489100 0.2 1008320
12:00−1ссз236955 0.0 1009770
15:000ссз236071 0.1 10111135
18:00−2с347393 0.1 1012103
21:00−3ссв258091 0.1 1014155
6 марта, сб
сб600:00−4всв118842 0.0 101528
03:00−5ю118921 0.0 101521
06:00−5ююз22920 0.0 101536
09:00−4зюз249049 0.1 1016282
12:00−4зсз4575100 0.6 1017638
15:00−2сз4572100 0.8 1017829
18:00−5ссз6974100 0.5 10181023
21:00−6зсз477479 0.5 1020419
7 марта, вс
вс700:00−6зюз48790 0.0 1020332
03:00−6юз613710 0.0 1017482
06:00−5юз8166582 0.0 1013701
09:00−4юз10176691 0.0 10091064
12:00−2зюз121978100 0.5 10051278
15:00−1зюз122076100 0.8 10021499
18:000з112075100 0.1 10011394
21:00−3зсз51385100 3.4 10031441
8 марта, пн
пн800:00−5з5137954 0.0 1004565
03:00−6з7137661 0.1 10041004
06:00−7зсз6128355 0.0 1006884
09:00−7сз7108076 0.1 10081076
12:00−6зсз6768100 0.1 10101165
15:00−6сз676996 0.1 10111232
18:00−6сз4777100 0.1 1012842
21:00−7сз4891100 0.1 1014561